logo
Search for airport 
image banner adimage banner adimage banner ad
image banner ad

OTHH - Hamad Intl

Located in Doha, Qatar

ICAO - , IATA - DOH

Data provided by Airmate  

General information

Coordinates: N25°16'28" E51°36'30"
Elevation is 13 feet MSL.
 
View others Airports in Ad Dawhah Municipality

Operational data

Special qualification required
Current time UTC:
Current local time:
Weather
METAR: OTHH 201100Z 35012KT CAVOK 39/10 Q1005 NOSIG
TAF: TAF OTHH 201103Z 2012/2118 01015KT CAVOK TEMPO 2012/2015 30010G20KT 8000 NSC TEMPO 2020/2023 23007KT
View NOTAMs / SUP AIP / TFR affecting this airport [VIEW]
Communications frequencies: [VIEW]

Runways:

RWY identifierQFULength (ft)Width (ft)SurfaceLDA (ft)
16R158°13944197UNK
34L338°13944197UNK
16L158°15912197UNK
34R338°15912197UNK

Airport contact information

Address: Doha Qatar

Satellite view of OTHH